Location: Campillo
(40.8621°N, 4.2488°W)
Time: 07:48:00
(UTC+00:00)

USA 308 - Pass Details

Date: 19 September 2021
Orbit: 566 x 573 km, 54.0° (Epoch: 23 September)

Event Time Altitude Azimuth Distance (km) Brightness Sun altitude
Rises 19:13:06 0° 276° (W) 2,762 8.6 -11.0°
Reaches altitude 10° 19:15:53 10° 294° (WNW) 1,868 7.0 -11.5°
Maximum altitude 19:18:59 19° 341° (NNW) 1,370 5.2 -12.1°
Drops below altitude 10° 19:22:06 10° 29° (NNE) 1,875 5.4 -12.6°
Enters shadow 19:24:17 - 44° (NE) 2,565 5.9 -13.0°
